Flag for China Weather past 2 weeks in Chongqing, Chongqing Municipality, China

Now
75 °F

Haze.


Feels Like: 77 °F
Forecast: 66 / 96 °F
Wind: 3 mph from Southeast

Location: Chongqing Airport

Current Time: Apr 29, 2015 at 2:29:03 AM

Latest Report: Apr 29, 2015 at 1:00 AM


Visibility: 3 mi

Pressure: 29.86 "Hg

Humidity: 65%

Dew point: 63 °F

Location of ChongqingLocation

Historic Weather in Chongqing — Graph

°F

Chongqing temperature yesterday

Maximum temperature yesterday: 90 °F (at 5:00 PM)
Minimum temperature yesterday: 68 °F (at 5:00 AM)
Average temperature yesterday: 78 °F

Past Weeks' High & Low Weather Summary

 TemperatureHumidityPressure
High90 °F (Apr 28, 5:00 PM)94% (Apr 15, 8:00 AM)30.24 "Hg (Apr 15, 8:00 AM)
Low54 °F (Apr 14, 5:00 AM)23% (Apr 14, 4:00 PM)29.45 "Hg (Apr 17, 4:00 PM)
Average69 °F64%29.93 "Hg
* Reported Apr 14 1:00 AM — Apr 29 1:00 AM, Chongqing, Weather by CustomWeather, © 2015

Note: Actual official high and low records may vary slightly from our data, if they occured in-between our weather recording intervals... More about our weather records

Advertising

Chongqing weather history for previous 24 hours

 ConditionsComfort  
Time TempWeatherWind HumidityBarometerVisibility
1:00 AM
Wed, Apr 29
75 °FHaze.3 mph65%29.86 "Hg3 mi
12:00 AM75 °FHaze.No wind61%29.86 "Hg3 mi
11:00 PM
Tue, Apr 28
77 °FClear.3 mph54%29.86 "Hg4 mi
10:00 PM79 °FClear.3 mph48%29.86 "Hg10 mi
9:00 PM81 °FPassing clouds.3 mph45%29.83 "HgN/A
8:00 PM82 °FClear.3 mph42%29.80 "Hg10 mi
7:00 PM84 °FPassing clouds.6 mph40%29.80 "HgN/A
6:00 PM88 °FClear.8 mph35%29.80 "Hg5 mi
5:00 PM90 °FSunny.1 mph29%29.80 "Hg10 mi
4:00 PM88 °FPassing clouds.3 mph31%29.80 "HgN/A
3:00 PM88 °FClear.3 mph35%29.83 "Hg5 mi
2:00 PM88 °FHaze.6 mph40%29.86 "Hg2 mi
1:00 PM86 °FHaze.1 mph46%29.86 "Hg2 mi
12:00 PM82 °FHaze.3 mph55%29.89 "Hg2 mi
11:00 AM81 °FHaze.3 mph54%29.92 "Hg1 mi
10:00 AM77 °FHaze.3 mph65%29.92 "Hg1 mi
9:00 AM73 °FHaze.1 mph69%29.92 "Hg1 mi
8:00 AM70 °FFog.3 mph78%29.89 "Hg1 mi
7:00 AM68 °FFog.6 mph83%29.86 "Hg1 mi
6:00 AM68 °FFog.No wind78%29.86 "Hg3 mi
5:00 AM68 °FFog.3 mph78%29.83 "Hg2 mi
4:00 AM70 °FFog.1 mph73%29.86 "Hg3 mi
3:00 AM70 °FFog.1 mph73%29.86 "Hg2 mi
2:00 AM72 °FHaze.No wind69%29.89 "Hg3 mi
Weather by CustomWeather, © 2015

See weather overviewHow to use our weather pages